TimeCST,TemperatureF,Dew PointF,Humidity,Sea Level PressureIn,VisibilityMPH,Wind Direction,Wind SpeedMPH,Gust SpeedMPH,PrecipitationIn,Events,Conditions,WindDirDegrees,DateUTC
12:33 AM,42.8,42.8,100,30.25,0.2,Calm,Calm,-,N/A,Fog,Fog,0,2011-11-25 06:33:00
12:44 AM,44.6,42.8,93,30.24,0.8,Calm,Calm,-,N/A,,Mist,0,2011-11-25 06:44:00
12:47 AM,44.6,44.6,100,30.24,1.2,Calm,Calm,-,N/A,,Scattered Clouds,0,2011-11-25 06:47:00
12:53 AM,44.1,43.0,96,30.27,0.8,Calm,Calm,-,N/A,,Mist,0,2011-11-25 06:53:00
1:04 AM,42.8,42.8,100,30.24,1.0,ESE,5.8,-,N/A,,Clear,120,2011-11-25 07:04:00
1:11 AM,42.8,42.8,100,30.24,3.0,ESE,4.6,-,N/A,,Clear,120,2011-11-25 07:11:00
1:25 AM,42.8,42.8,100,30.24,3.0,ESE,6.9,-,N/A,,Clear,120,2011-11-25 07:25:00
2:53 AM,45.0,43.0,93,30.26,10.0,SSE,3.5,-,N/A,,Clear,150,2011-11-25 08:53:00
3:53 AM,45.0,43.0,93,30.24,10.0,SE,4.6,-,N/A,,Clear,140,2011-11-25 09:53:00
4:53 AM,45.0,42.1,90,30.25,10.0,SSE,5.8,-,N/A,,Clear,150,2011-11-25 10:53:00
5:53 AM,43.0,41.0,93,30.24,10.0,SSE,5.8,-,N/A,,Clear,150,2011-11-25 11:53:00
6:53 AM,42.1,41.0,96,30.26,10.0,SSE,5.8,-,N/A,,Clear,160,2011-11-25 12:53:00
7:53 AM,46.9,45.0,93,30.28,10.0,SE,4.6,-,N/A,,Clear,140,2011-11-25 13:53:00
8:53 AM,52.0,46.9,83,30.28,10.0,SSE,6.9,-,N/A,,Clear,150,2011-11-25 14:53:00
9:53 AM,57.0,46.9,69,30.27,10.0,South,9.2,-,N/A,,Clear,170,2011-11-25 15:53:00
10:53 AM,62.1,46.9,58,30.25,10.0,SSE,9.2,-,N/A,,Clear,160,2011-11-25 16:53:00
11:53 AM,64.9,51.1,61,30.20,10.0,South,13.8,-,N/A,,Clear,190,2011-11-25 17:53:00
12:53 PM,66.9,52.0,59,30.17,10.0,South,12.7,-,N/A,,Clear,180,2011-11-25 18:53:00
1:53 PM,68.0,52.0,56,30.14,10.0,South,11.5,-,N/A,,Clear,170,2011-11-25 19:53:00
2:53 PM,66.9,52.0,59,30.12,10.0,South,15.0,-,N/A,,Clear,180,2011-11-25 20:53:00
3:53 PM,66.9,53.1,61,30.11,10.0,South,11.5,-,N/A,,Clear,190,2011-11-25 21:53:00
4:53 PM,63.0,53.1,70,30.09,10.0,SSE,5.8,-,N/A,,Clear,160,2011-11-25 22:53:00
5:53 PM,57.9,54.0,87,30.07,10.0,ESE,5.8,-,N/A,,Clear,110,2011-11-25 23:53:00
6:53 PM,57.0,53.1,87,30.07,10.0,ESE,5.8,-,N/A,,Clear,120,2011-11-26 00:53:00
7:53 PM,59.0,52.0,78,30.06,10.0,SE,9.2,-,N/A,,Clear,140,2011-11-26 01:53:00
8:53 PM,61.0,53.1,75,30.08,10.0,SSE,9.2,-,N/A,,Mostly Cloudy,150,2011-11-26 02:53:00
9:53 PM,60.1,54.0,80,30.08,10.0,SSE,6.9,-,N/A,,Overcast,150,2011-11-26 03:53:00
10:53 PM,60.1,54.0,80,30.08,10.0,SSE,6.9,-,N/A,,Mostly Cloudy,150,2011-11-26 04:53:00
11:53 PM,60.8,55.4,82,30.05,10.0,SE,11.5,-,N/A,,Mostly Cloudy,140,2011-11-26 05:53:00